Spokane, WA
on Sunday, February 24, 2013

Sunday
Previous Day Next Day
Daily Summary
 ActualAverageRecord
Temperature
Mean Temperature °F 34°F  
Max Temperature 38°F 42°F 59°F (1995)
Min Temperature 24°F 27°F 3°F (2011)
Degree Days
Heating Degree Days 34 30  
Month to date heating degree days 754 776  
Since 1 July heating degree days 4422 4709  
Cooling Degree Days 0 0  
Month to date cooling degree days 0 0  
Year to date cooling degree days 0 0  
Moisture
Dew Point 25°F   
Average Humidity 78    
Maximum Humidity 92    
Minimum Humidity 64    
Precipitation
Precipitation 0.00 in 0.05 in 0.66 in (1914)
Month to date precipitation 0.46 1.13  
Year to date precipitation 2.09 2.92  
Snow
Snow 0.00 in 0.20 in 5.40 in (2011)
Month to date snowfall 2.9 6.0  
Since 1 July snowfall 41.1 39.5  
Snow Depth 0.00 in   
Wind
Wind Speed 9 mph   
Max Wind Speed 18 mph   
Max Gust Speed 23 mph   
Visibility 10 miles   
Events     

Key: T is trace of precipitation, MM is missing value
Source: NWS Daily Summary
Time(PST)TemperatureDew PointHumidity Pressure Visibility Wind DirectionWind SpeedGust SpeedPrecipitationEvents Conditions
12:53 AM 27.0°F 21.9°F 81% 30.25 in 10.0 miles SSE 6.9 mph - N/A   Partly Cloudy
1:53 AM 28.0°F 23.0°F 81% 30.26 in 10.0 miles SSW 8.1 mph - N/A   Clear
2:53 AM 27.0°F 23.0°F 85% 30.26 in 10.0 miles South 9.2 mph - N/A   Partly Cloudy
3:53 AM 27.0°F 23.0°F 85% 30.27 in 10.0 miles South 5.8 mph - N/A   Partly Cloudy
4:29 AM 26.6°F 23.0°F 86% 30.22 in 10.0 miles South 5.8 mph - N/A   Scattered Clouds
4:53 AM 25.0°F 23.0°F 92% 30.28 in 10.0 miles SSE 8.1 mph - N/A   Partly Cloudy
5:53 AM 25.0°F 21.9°F 88% 30.30 in 10.0 miles SSW 9.2 mph - N/A   Partly Cloudy
6:53 AM 24.1°F 21.9°F 91% 30.31 in 10.0 miles SSE 5.8 mph - N/A   Scattered Clouds
7:53 AM 26.1°F 24.1°F 92% 30.32 in 10.0 miles South 8.1 mph - N/A   Mostly Cloudy
8:53 AM 28.9°F 25.0°F 85% 30.32 in 10.0 miles South 8.1 mph - N/A   Mostly Cloudy
9:53 AM 32.0°F 25.0°F 75% 30.33 in 10.0 miles SSW 16.1 mph 21.9 mph N/A   Mostly Cloudy
10:53 AM 34.0°F 27.0°F 75% 30.33 in 10.0 miles SSW 15.0 mph - N/A   Mostly Cloudy
11:53 AM 36.0°F 27.0°F 70% 30.32 in 10.0 miles SSW 15.0 mph - N/A   Mostly Cloudy
12:53 PM 37.0°F 26.1°F 65% 30.31 in 10.0 miles South 13.8 mph - N/A   Overcast
1:53 PM 37.9°F 27.0°F 65% 30.29 in 10.0 miles SW 15.0 mph - N/A   Mostly Cloudy
2:53 PM 37.0°F 26.1°F 65% 30.27 in 10.0 miles SSW 8.1 mph - N/A   Mostly Cloudy
3:53 PM 37.0°F 26.1°F 65% 30.27 in 10.0 miles SSW 9.2 mph - N/A   Overcast
4:53 PM 37.0°F 26.1°F 65% 30.25 in 10.0 miles SSE 4.6 mph - N/A   Mostly Cloudy
5:53 PM 35.1°F 26.1°F 70% 30.23 in 10.0 miles SE 3.5 mph - N/A   Mostly Cloudy
6:53 PM 34.0°F 27.0°F 75% 30.22 in 10.0 miles SSE 4.6 mph - N/A   Scattered Clouds
7:53 PM 33.1°F 27.0°F 78% 30.20 in 10.0 miles South 5.8 mph - N/A   Overcast
8:53 PM 34.0°F 26.1°F 73% 30.16 in 10.0 miles SSE 6.9 mph - N/A   Overcast
9:53 PM 34.0°F 26.1°F 73% 30.14 in 10.0 miles SSE 6.9 mph - N/A   Overcast
10:53 PM 33.1°F 26.1°F 75% 30.10 in 10.0 miles SSE 5.8 mph - N/A   Overcast
11:53 PM 33.1°F 26.1°F 75% 30.07 in 10.0 miles SE 6.9 mph - N/A   Overcast
Moon Phase
Feb. 24 Feb. 25 Mar. 04 Mar. 11 Mar. 19
Sunrise:06:39 AM (PST) Moon Rise:04:44 PM (PST)2/24
Sunset:05:27 PM (PST) Moon Set:05:40 AM (PST)2/24

Copyright © 2014 The Weather Underground, Inc.